| time (UTC) | temp F | wind direction | speed knots | gust knots | rain 1hr in | rain 24hr in | rain mn in | humidity % | barometer mb |
| 20260505125032 | 66 | 280 | 4.3 | 10.4 | 0.00 | 0.00 | 0.00 | 59 | 1015.5 |
| 20260505124544 | 66 | 241 | 4.3 | 9.6 | 0.00 | 0.00 | 0.00 | 59 | 1015.5 |
| 20260505124032 | 66 | 262 | 4.3 | 8.7 | 0.00 | 0.00 | 0.00 | 59 | 1015.5 |
| 20260505123531 | 66 | 219 | 2.6 | 9.6 | 0.00 | 0.00 | 0.00 | 62 | 1015.5 |
| 20260505123050 | 65 | 244 | 4.3 | 9.6 | 0.00 | 0.00 | 0.00 | 62 | 1015.5 |
| 20260505122532 | 65 | 222 | 3.5 | 7.8 | 0.00 | 0.00 | 0.00 | 62 | 1015.4 |
| 20260505122033 | 65 | 186 | 3.5 | 10.4 | 0.00 | 0.00 | 0.00 | 62 | 1015.4 |
| 20260505121542 | 64 | 205 | 5.2 | 10.4 | 0.00 | 0.00 | 0.00 | 63 | 1015.3 |
| 20260505121030 | 64 | 267 | 3.5 | 8.7 | 0.00 | 0.00 | 0.00 | 62 | 1015.3 |
| 20260505120533 | 64 | 242 | 3.5 | 7.8 | 0.00 | 0.00 | 0.00 | 64 | 1015.3 |
| 20260505120048 | 63 | 230 | 2.6 | 7.8 | 0.00 | 0.00 | 0.00 | 64 | 1015.3 |
| 20260505115531 | 63 | 221 | 2.6 | 7.8 | 0.00 | 0.00 | 0.00 | 65 | 1015.3 |
| 20260505115032 | 63 | 222 | 3.5 | 7.0 | 0.00 | 0.00 | 0.00 | 65 | 1015.2 |
| 20260505114544 | 63 | 244 | 1.7 | 7.0 | 0.00 | 0.00 | 0.00 | 65 | 1015.2 |
| 20260505114032 | 62 | 309 | 2.6 | 7.0 | 0.00 | 0.00 | 0.00 | 66 | 1015.1 |
| 20260505113531 | 62 | 221 | 1.7 | 4.3 | 0.00 | 0.00 | 0.00 | 66 | 1015.2 |
| 20260505113041 | 62 | 236 | 0.9 | 4.3 | 0.00 | 0.00 | 0.00 | 65 | 1015.2 |
| 20260505112530 | 62 | 213 | 2.6 | 4.3 | 0.00 | 0.00 | 0.00 | 66 | 1015.1 |
| 20260505112032 | 62 | 240 | 1.7 | 4.3 | 0.00 | 0.00 | 0.00 | 67 | 1015.2 |
| 20260505111541 | 62 | 218 | 2.6 | 4.3 | 0.00 | 0.00 | 0.00 | 67 | 1015.3 |
| 20260505111032 | 61 | 192 | 1.7 | 6.1 | 0.00 | 0.00 | 0.00 | 68 | 1015.2 |
| 20260505110533 | 61 | 167 | 2.6 | 6.1 | 0.00 | 0.00 | 0.00 | 68 | 1015.1 |
| 20260505102032 | 61 | 231 | 2.6 | 7.8 | 0.00 | 0.00 | 0.00 | 66 | 1014.5 |
| 20260505101553 | 62 | 247 | 3.5 | 7.8 | 0.00 | 0.00 | 0.00 | 66 | 1014.5 |
| 20260505101032 | 62 | 223 | 3.5 | 7.8 | 0.00 | 0.00 | 0.00 | 65 | 1014.4 |
| 20260505100531 | 62 | 237 | 3.5 | 9.6 | 0.00 | 0.00 | 0.00 | 65 | 1014.3 |
| 20260505100043 | 62 | 230 | 4.3 | 10.4 | 0.00 | 0.00 | 0.00 | 65 | 1014.3 |
| 20260505095531 | 62 | 213 | 4.3 | 10.4 | 0.00 | 0.00 | 0.00 | 65 | 1014.3 |
| 20260505095036 | 62 | 244 | 4.3 | 9.6 | 0.00 | 0.00 | 0.00 | 65 | 1014.1 |
| 20260505094542 | 61 | 232 | 5.2 | 9.6 | 0.00 | 0.00 | 0.00 | 65 | 1014.2 |
| 20260505094032 | 61 | 229 | 4.3 | 9.6 | 0.00 | 0.00 | 0.00 | 66 | 1014.1 |
| 20260505093532 | 61 | 219 | 4.3 | 9.6 | 0.00 | 0.00 | 0.00 | 65 | 1014.0 |
| 20260505093052 | 62 | 236 | 3.5 | 8.7 | 0.00 | 0.00 | 0.00 | 64 | 1014.0 |
| 20260505092532 | 62 | 248 | 5.2 | 8.7 | 0.00 | 0.00 | 0.00 | 63 | 1013.9 |
| 20260505092032 | 63 | 249 | 3.5 | 8.7 | 0.00 | 0.00 | 0.00 | 63 | 1013.9 |
| 20260505091553 | 63 | 215 | 3.5 | 7.8 | 0.00 | 0.00 | 0.00 | 63 | 1013.9 |
| 20260505091031 | 62 | 250 | 3.5 | 7.8 | 0.00 | 0.00 | 0.00 | 63 | 1013.8 |
| 20260505090531 | 62 | 221 | 2.6 | 7.8 | 0.00 | 0.00 | 0.00 | 63 | 1013.8 |
| 20260505090042 | 63 | 194 | 2.6 | 7.8 | 0.00 | 0.00 | 0.00 | 63 | 1013.8 |
| 20260505085532 | 63 | 185 | 2.6 | 8.7 | 0.00 | 0.00 | 0.00 | 62 | 1013.8 |
| 20260505085035 | 63 | 232 | 3.5 | 8.7 | 0.00 | 0.00 | 0.00 | 62 | 1013.7 |
| 20260505084543 | 63 | 163 | 2.6 | 7.8 | 0.00 | 0.00 | 0.00 | 62 | 1013.7 |
| 20260505084033 | 63 | 240 | 3.5 | 8.7 | 0.00 | 0.00 | 0.00 | 63 | 1013.7 |
| 20260505083532 | 63 | 230 | 2.6 | 8.7 | 0.00 | 0.00 | 0.00 | 62 | 1013.6 |
| 20260505083041 | 63 | 226 | 3.5 | 10.4 | 0.00 | 0.00 | 0.00 | 63 | 1013.6 |
| 20260505082533 | 63 | 230 | 5.2 | 10.4 | 0.00 | 0.00 | 0.00 | 64 | 1013.5 |
| 20260505082032 | 63 | 192 | 3.5 | 8.7 | 0.00 | 0.00 | 0.00 | 63 | 1013.4 |
| 20260505081544 | 63 | 223 | 4.3 | 10.4 | 0.00 | 0.00 | 0.00 | 63 | 1013.5 |
| 20260505081033 | 63 | 223 | 4.3 | 10.4 | 0.00 | 0.00 | 0.00 | 62 | 1013.6 |
| 20260505080532 | 63 | 261 | 3.5 | 9.6 | 0.00 | 0.00 | 0.00 | 62 | 1013.5 |
| 20260505080047 | 63 | 242 | 3.5 | 9.6 | 0.00 | 0.00 | 0.00 | 62 | 1013.5 |
| 20260505075532 | 63 | 211 | 4.3 | 9.6 | 0.00 | 0.00 | 0.00 | 62 | 1013.5 |
| 20260505075031 | 64 | 193 | 4.3 | 9.6 | 0.00 | 0.00 | 0.00 | 62 | 1013.5 |
| 20260505074542 | 64 | 150 | 3.5 | 10.4 | 0.00 | 0.00 | 0.00 | 61 | 1013.5 |
| 20260505074032 | 64 | 226 | 5.2 | 11.3 | 0.00 | 0.00 | 0.00 | 62 | 1013.5 |
| 20260505073531 | 64 | 229 | 4.3 | 12.2 | 0.00 | 0.00 | 0.00 | 61 | 1013.6 |
| 20260505073055 | 64 | 212 | 5.2 | 12.2 | 0.00 | 0.00 | 0.00 | 61 | 1013.5 |
| 20260505072532 | 64 | 167 | 5.2 | 10.4 | 0.00 | 0.00 | 0.00 | 61 | 1013.4 |
| 20260505072034 | 64 | 245 | 5.2 | 9.6 | 0.00 | 0.00 | 0.00 | 60 | 1013.4 |
| 20260505071556 | 64 | 238 | 4.3 | 11.3 | 0.00 | 0.00 | 0.00 | 60 | 1013.3 |
| 20260505071033 | 64 | 225 | 4.3 | 11.3 | 0.00 | 0.00 | 0.00 | 60 | 1013.4 |
| 20260505070532 | 64 | 262 | 5.2 | 13.0 | 0.00 | 0.00 | 0.00 | 61 | 1013.3 |
| 20260505070045 | 64 | 217 | 4.3 | 13.0 | 0.00 | 0.00 | 0.00 | 60 | 1013.2 |
| 20260505065531 | 64 | 261 | 5.2 | 12.2 | 0.00 | 0.00 | 0.00 | 60 | 1013.2 |
| 20260505065032 | 65 | 259 | 4.3 | 12.2 | 0.00 | 0.00 | 0.00 | 60 | 1013.2 |
| 20260505064543 | 64 | 109 | 6.1 | 12.2 | 0.00 | 0.00 | 0.00 | 59 | 1013.3 |
| 20260505064033 | 65 | 217 | 6.1 | 12.2 | 0.00 | 0.00 | 0.00 | 59 | 1013.3 |
| 20260505063532 | 65 | 233 | 4.3 | 12.2 | 0.00 | 0.00 | 0.00 | 59 | 1013.3 |
| 20260505063038 | 64 | 217 | 5.2 | 12.2 | 0.00 | 0.00 | 0.00 | 59 | 1013.3 |
| 20260505062532 | 64 | 265 | 5.2 | 12.2 | 0.00 | 0.00 | 0.00 | 59 | 1013.4 |
| 20260505062032 | 64 | 190 | 5.2 | 12.2 | 0.00 | 0.00 | 0.00 | 59 | 1013.3 |
| 20260505061544 | 65 | 252 | 5.2 | 10.4 | 0.00 | 0.00 | 0.00 | 58 | 1013.4 |
| 20260505061031 | 65 | 217 | 4.3 | 13.9 | 0.00 | 0.00 | 0.00 | 58 | 1013.4 |
| 20260505060533 | 65 | 254 | 4.3 | 13.9 | 0.00 | 0.00 | 0.00 | 58 | 1013.4 |
| 20260505060049 | 65 | 183 | 5.2 | 11.3 | 0.00 | 0.00 | 0.00 | 57 | 1013.5 |
| 20260505055535 | 65 | 260 | 4.3 | 11.3 | 0.00 | 0.00 | 0.00 | 58 | 1013.4 |
| 20260505055032 | 65 | 194 | 4.3 | 11.3 | 0.00 | 0.00 | 0.00 | 58 | 1013.5 |
| 20260505054541 | 65 | 155 | 4.3 | 11.3 | 0.00 | 0.00 | 0.00 | 58 | 1013.6 |
| 20260505054033 | 65 | 212 | 4.3 | 11.3 | 0.00 | 0.00 | 0.00 | 57 | 1013.5 |
| 20260505053529 | 66 | 189 | 5.2 | 11.3 | 0.00 | 0.00 | 0.00 | 57 | 1013.6 |
| 20260505053043 | 66 | 228 | 3.5 | 11.3 | 0.00 | 0.00 | 0.00 | 56 | 1013.7 |
| 20260505052530 | 66 | 227 | 3.5 | 10.4 | 0.00 | 0.00 | 0.00 | 57 | 1013.7 |
| 20260505052034 | 66 | 240 | 3.5 | 10.4 | 0.00 | 0.00 | 0.00 | 57 | 1013.7 |
| 20260505051557 | 66 | 190 | 3.5 | 9.6 | 0.00 | 0.00 | 0.00 | 57 | 1013.6 |
| 20260505051032 | 66 | 225 | 4.3 | 9.6 | 0.00 | 0.00 | 0.00 | 57 | 1013.6 |
| 20260505050532 | 66 | 238 | 2.6 | 14.8 | 0.00 | 0.00 | 0.00 | 57 | 1013.6 |
| 20260505041545 | 66 | 184 | 4.3 | 16.5 | 0.00 | 0.00 | 0.00 | 57 | 1013.6 |
| 20260505041031 | 66 | 169 | 6.1 | 15.6 | 0.00 | 0.00 | 0.00 | 57 | 1013.6 |
| 20260505040530 | 66 | 182 | 5.2 | 10.4 | 0.00 | 0.00 | 0.00 | 57 | 1013.5 |
| 20260505040045 | 67 | 216 | 4.3 | 11.3 | 0.00 | 0.00 | 0.00 | 57 | 1013.6 |
| 20260505035532 | 67 | 165 | 4.3 | 12.2 | 0.00 | 0.00 | 0.00 | 57 | 1013.5 |
| 20260505035031 | 67 | 277 | 6.1 | 15.6 | 0.00 | 0.00 | 0.00 | 58 | 1013.4 |
| 20260505034541 | 67 | 218 | 6.1 | 15.6 | 0.00 | 0.00 | 0.00 | 57 | 1013.4 |
| 20260505034032 | 67 | 196 | 4.3 | 13.0 | 0.00 | 0.00 | 0.00 | 57 | 1013.4 |
| 20260505033532 | 67 | 219 | 5.2 | 11.3 | 0.00 | 0.00 | 0.00 | 57 | 1013.4 |
| 20260505033040 | 67 | 242 | 3.5 | 10.4 | 0.00 | 0.00 | 0.00 | 57 | 1013.4 |
| 20260505032530 | 67 | 180 | 4.3 | 10.4 | 0.00 | 0.00 | 0.00 | 57 | 1013.5 |
| 20260505032030 | 67 | 227 | 4.3 | 11.3 | 0.00 | 0.00 | 0.00 | 57 | 1013.5 |
| 20260505031544 | 67 | 211 | 5.2 | 10.4 | 0.00 | 0.00 | 0.00 | 57 | 1013.4 |
| 20260505031032 | 67 | 247 | 5.2 | 11.3 | 0.00 | 0.00 | 0.00 | 57 | 1013.4 |
| 20260505030532 | 67 | 154 | 3.5 | 11.3 | 0.00 | 0.00 | 0.00 | 57 | 1013.4 |
| 20260505030045 | 68 | 233 | 3.5 | 8.7 | 0.00 | 0.00 | 0.00 | 56 | 1013.3 |
| 20260505025533 | 68 | 163 | 3.5 | 8.7 | 0.00 | 0.00 | 0.00 | 57 | 1013.5 |
| 20260505025059 | 68 | 216 | 3.5 | 7.8 | 0.00 | 0.00 | 0.00 | 57 | 1013.5 |
| 20260505024557 | 68 | 226 | 3.5 | 8.7 | 0.00 | 0.00 | 0.00 | 57 | 1013.4 |
| 20260505024031 | 68 | 198 | 4.3 | 8.7 | 0.00 | 0.00 | 0.00 | 57 | 1013.4 |
| 20260505023536 | 68 | 250 | 3.5 | 8.7 | 0.00 | 0.00 | 0.00 | 57 | 1013.4 |
| 20260505023046 | 68 | 216 | 4.3 | 9.6 | 0.00 | 0.00 | 0.00 | 58 | 1013.3 |
| 20260505022532 | 68 | 226 | 4.3 | 9.6 | 0.00 | 0.00 | 0.00 | 58 | 1013.3 |
| 20260505022031 | 68 | 134 | 3.5 | 7.8 | 0.00 | 0.00 | 0.00 | 58 | 1013.3 |
| 20260505021541 | 68 | 163 | 2.6 | 8.7 | 0.00 | 0.00 | 0.00 | 57 | 1013.3 |
| 20260505021031 | 69 | 155 | 4.3 | 8.7 | 0.00 | 0.00 | 0.00 | 57 | 1013.1 |
| 20260505020532 | 69 | 86 | 3.5 | 10.4 | 0.00 | 0.00 | 0.00 | 57 | 1013.1 |
| 20260505020045 | 69 | 208 | 3.5 | 10.4 | 0.00 | 0.00 | 0.00 | 57 | 1013.1 |
| 20260505015532 | 69 | 219 | 3.5 | 9.6 | 0.00 | 0.00 | 0.00 | 57 | 1013.2 |
| 20260505015035 | 69 | 190 | 3.5 | 8.7 | 0.00 | 0.00 | 0.00 | 57 | 1013.2 |
| 20260505014545 | 69 | 187 | 4.3 | 8.7 | 0.00 | 0.00 | 0.00 | 57 | 1013.1 |
| 20260505014033 | 69 | 250 | 3.5 | 8.7 | 0.00 | 0.00 | 0.00 | 57 | 1013.1 |
| 20260505013531 | 69 | 210 | 4.3 | 10.4 | 0.00 | 0.00 | 0.00 | 57 | 1013.1 |
| 20260505013059 | 69 | 151 | 4.3 | 10.4 | 0.00 | 0.00 | 0.00 | 56 | 1013.1 |
| 20260505012535 | 70 | 138 | 3.5 | 9.6 | 0.00 | 0.00 | 0.00 | 56 | 1012.9 |
| 20260505012032 | 70 | 144 | 3.5 | 13.0 | 0.00 | 0.00 | 0.00 | 56 | 1012.9 |
| 20260505011543 | 70 | 163 | 4.3 | 13.0 | 0.00 | 0.00 | 0.00 | 56 | 1012.9 |
| 20260505011032 | 69 | 160 | 3.5 | 7.8 | 0.00 | 0.00 | 0.00 | 56 | 1012.8 |
| 20260505010530 | 70 | 96 | 2.6 | 8.7 | 0.00 | 0.00 | 0.00 | 56 | 1012.6 |
| 20260505010048 | 70 | 183 | 3.5 | 8.7 | 0.00 | 0.00 | 0.00 | 56 | 1012.5 |
| 20260505005534 | 70 | 207 | 3.5 | 13.0 | 0.00 | 0.00 | 0.00 | 56 | 1012.4 |
| 20260505005032 | 70 | 79 | 3.5 | 13.0 | 0.00 | 0.00 | 0.00 | 56 | 1012.3 |
| 20260505004549 | 70 | 92 | 3.5 | 9.6 | 0.00 | 0.00 | 0.00 | 54 | 1012.2 |
| 20260505004031 | 70 | 211 | 3.5 | 9.6 | 0.00 | 0.00 | 0.00 | 54 | 1012.1 |
| 20260505003533 | 71 | 99 | 3.5 | 8.7 | 0.00 | 0.00 | 0.00 | 55 | 1012.1 |
| 20260505003040 | 70 | 105 | 3.5 | 13.0 | 0.00 | 0.00 | 0.00 | 54 | 1012.1 |
| 20260505002531 | 70 | 213 | 3.5 | 13.0 | 0.00 | 0.00 | 0.00 | 54 | 1012.1 |
| 20260505002031 | 71 | 102 | 4.3 | 8.7 | 0.00 | 0.00 | 0.00 | 53 | 1012.1 |
| 20260505001541 | 71 | 169 | 3.5 | 15.6 | 0.00 | 0.00 | 0.00 | 53 | 1012.0 |
| 20260505001036 | 71 | 151 | 4.3 | 15.6 | 0.00 | 0.00 | 0.00 | 52 | 1011.9 |
| 20260505000535 | 72 | 141 | 2.6 | 8.7 | 0.00 | 0.00 | 0.00 | 52 | 1011.9 |
| 20260505000054 | 72 | 57 | 2.6 | 8.7 | 0.00 | 0.00 | 0.00 | 51 | 1011.8 |
| 20260504235532 | 72 | 219 | 4.3 | 8.7 | 0.00 | 0.00 | 0.00 | 50 | 1011.7 |
| 20260504235032 | 72 | 192 | 3.5 | 9.6 | 0.00 | 0.00 | 0.00 | 49 | 1011.6 |
| 20260504234543 | 73 | 103 | 3.5 | 9.6 | 0.00 | 0.00 | 0.00 | 48 | 1011.5 |
| 20260504234032 | 74 | 70 | 4.3 | 10.4 | 0.00 | 0.00 | 0.00 | 46 | 1011.5 |
| 20260504233532 | 75 | 165 | 3.5 | 10.4 | 0.00 | 0.00 | 0.00 | 41 | 1011.4 |
| 20260504233043 | 76 | 211 | 3.5 | 10.4 | 0.00 | 0.00 | 0.00 | 34 | 1011.3 |
| 20260504232532 | 76 | 226 | 6.1 | 13.9 | 0.00 | 0.00 | 0.00 | 34 | 1011.2 |
| 20260504232031 | 76 | 111 | 6.1 | 13.9 | 0.00 | 0.00 | 0.00 | 34 | 1011.2 |
| 20260504231546 | 76 | 217 | 5.2 | 11.3 | 0.00 | 0.00 | 0.00 | 34 | 1011.1 |
| 20260504231031 | 76 | 258 | 5.2 | 12.2 | 0.00 | 0.00 | 0.00 | 34 | 1011.1 |
| 20260504230532 | 76 | 232 | 6.1 | 12.2 | 0.00 | 0.00 | 0.00 | 34 | 1011.2 |
| 20260504230056 | 77 | 219 | 5.2 | 8.7 | 0.00 | 0.00 | 0.00 | 34 | 1011.1 |
| 20260504225532 | 77 | 232 | 4.3 | 13.9 | 0.00 | 0.00 | 0.00 | 33 | 1011.1 |
| 20260504225031 | 77 | 222 | 4.3 | 13.9 | 0.00 | 0.00 | 0.00 | 33 | 1011.1 |
| 20260504224543 | 77 | 123 | 7.0 | 17.4 | 0.00 | 0.00 | 0.00 | 33 | 1011.1 |
| 20260504224032 | 77 | 200 | 7.0 | 17.4 | 0.00 | 0.00 | 0.00 | 33 | 1011.1 |
| 20260504223532 | 77 | 236 | 6.1 | 13.9 | 0.00 | 0.00 | 0.00 | 32 | 1011.0 |
| 20260504223055 | 78 | 253 | 7.8 | 13.0 | 0.00 | 0.00 | 0.00 | 32 | 1011.1 |
| 20260504222533 | 78 | 129 | 4.3 | 12.2 | 0.00 | 0.00 | 0.00 | 33 | 1011.1 |
| 20260504222031 | 78 | 257 | 5.2 | 13.9 | 0.00 | 0.00 | 0.00 | 33 | 1011.1 |
| 20260504221542 | 78 | 252 | 6.1 | 13.9 | 0.00 | 0.00 | 0.00 | 32 | 1011.1 |
| 20260504221034 | 78 | 203 | 5.2 | 11.3 | 0.00 | 0.00 | 0.00 | 32 | 1011.1 |
| 20260504220532 | 77 | 210 | 6.1 | 13.0 | 0.00 | 0.00 | 0.00 | 33 | 1011.1 |
| 20260504220050 | 78 | 253 | 6.1 | 14.8 | 0.00 | 0.00 | 0.00 | 32 | 1011.1 |
| 20260504215530 | 78 | 242 | 8.7 | 14.8 | 0.00 | 0.00 | 0.00 | 32 | 1011.0 |
| 20260504215034 | 78 | 205 | 6.1 | 13.0 | 0.00 | 0.00 | 0.00 | 32 | 1011.1 |
| 20260504214547 | 78 | 254 | 5.2 | 13.0 | 0.00 | 0.00 | 0.00 | 31 | 1011.1 |
| 20260504214030 | 78 | 193 | 4.3 | 13.0 | 0.00 | 0.00 | 0.00 | 31 | 1011.1 |
| 20260504213533 | 78 | 221 | 7.0 | 13.0 | 0.00 | 0.00 | 0.00 | 32 | 1011.2 |
| 20260504213051 | 78 | 191 | 7.0 | 15.6 | 0.00 | 0.00 | 0.00 | 31 | 1011.3 |
| 20260504212531 | 79 | 242 | 8.7 | 15.6 | 0.00 | 0.00 | 0.00 | 31 | 1011.4 |
| 20260504212034 | 79 | 238 | 5.2 | 13.9 | 0.00 | 0.00 | 0.00 | 31 | 1011.3 |
| 20260504211543 | 78 | 242 | 7.0 | 13.9 | 0.00 | 0.00 | 0.00 | 31 | 1011.3 |
| 20260504211031 | 78 | 260 | 5.2 | 13.9 | 0.00 | 0.00 | 0.00 | 31 | 1011.3 |
| 20260504210531 | 78 | 227 | 7.8 | 13.9 | 0.00 | 0.00 | 0.00 | 31 | 1011.5 |
| 20260504210037 | 78 | 202 | 7.0 | 17.4 | 0.00 | 0.00 | 0.00 | 31 | 1011.4 |
| 20260504205532 | 78 | 258 | 7.8 | 17.4 | 0.00 | 0.00 | 0.00 | 31 | 1011.4 |
| 20260504205033 | 79 | 256 | 8.7 | 17.4 | 0.00 | 0.00 | 0.00 | 29 | 1011.4 |
| 20260504204543 | 80 | 224 | 5.2 | 12.2 | 0.00 | 0.00 | 0.00 | 30 | 1011.5 |
| 20260504204032 | 78 | 237 | 6.1 | 17.4 | 0.00 | 0.00 | 0.00 | 31 | 1011.4 |
| 20260504203532 | 78 | 228 | 8.7 | 17.4 | 0.00 | 0.00 | 0.00 | 30 | 1011.5 |
| 20260504203042 | 78 | 182 | 3.5 | 13.9 | 0.00 | 0.00 | 0.00 | 31 | 1011.5 |
| 20260504202532 | 78 | 222 | 7.0 | 15.6 | 0.00 | 0.00 | 0.00 | 30 | 1011.5 |
| 20260504202031 | 79 | 176 | 9.6 | 15.6 | 0.00 | 0.00 | 0.00 | 29 | 1011.5 |
| 20260504201603 | 79 | 211 | 5.2 | 15.6 | 0.00 | 0.00 | 0.00 | 30 | 1011.6 |
| 20260504201033 | 79 | 213 | 8.7 | 15.6 | 0.00 | 0.00 | 0.00 | 30 | 1011.5 |
| 20260504200531 | 79 | 243 | 4.3 | 13.9 | 0.00 | 0.00 | 0.00 | 30 | 1011.5 |
| 20260504200047 | 79 | 225 | 7.8 | 13.9 | 0.00 | 0.00 | 0.00 | 30 | 1011.6 |
| 20260504195529 | 78 | 251 | 3.5 | 13.0 | 0.00 | 0.00 | 0.00 | 31 | 1011.7 |
| 20260504195031 | 78 | 209 | 4.3 | 15.6 | 0.00 | 0.00 | 0.00 | 31 | 1011.7 |
| 20260504194537 | 78 | 224 | 7.0 | 15.6 | 0.00 | 0.00 | 0.00 | 30 | 1011.8 |
| 20260504194032 | 79 | 252 | 2.6 | 12.2 | 0.00 | 0.00 | 0.00 | 31 | 1011.8 |
| 20260504193534 | 78 | 252 | 5.2 | 17.4 | 0.00 | 0.00 | 0.00 | 31 | 1011.9 |
| 20260504193044 | 78 | 213 | 7.0 | 17.4 | 0.00 | 0.00 | 0.00 | 31 | 1012.1 |
| 20260504192532 | 78 | 242 | 6.1 | 15.6 | 0.00 | 0.00 | 0.00 | 32 | 1012.0 |
| 20260504192032 | 78 | 210 | 5.2 | 13.0 | 0.00 | 0.00 | 0.00 | 32 | 1012.0 |
| 20260504191554 | 77 | 219 | 5.2 | 13.0 | 0.00 | 0.00 | 0.00 | 32 | 1012.0 |
| 20260504191031 | 78 | 222 | 7.8 | 14.8 | 0.00 | 0.00 | 0.00 | 30 | 1012.3 |
| 20260504190534 | 78 | 195 | 4.3 | 14.8 | 0.00 | 0.00 | 0.00 | 31 | 1012.3 |
| 20260504190047 | 78 | 218 | 9.6 | 14.8 | 0.00 | 0.00 | 0.00 | 31 | 1012.4 |
| 20260504185531 | 78 | 238 | 4.3 | 9.6 | 0.00 | 0.00 | 0.00 | 31 | 1012.3 |
| 20260504185031 | 79 | 259 | 6.1 | 14.8 | 0.00 | 0.00 | 0.00 | 31 | 1012.4 |
| 20260504184604 | 77 | 233 | 6.1 | 14.8 | 0.00 | 0.00 | 0.00 | 32 | 1012.6 |
| 20260504184030 | 77 | 202 | 8.7 | 14.8 | 0.00 | 0.00 | 0.00 | 32 | 1012.9 |
| 20260504183529 | 78 | 247 | 7.0 | 13.9 | 0.00 | 0.00 | 0.00 | 32 | 1012.8 |
| 20260504183046 | 78 | 198 | 7.0 | 12.2 | 0.00 | 0.00 | 0.00 | 32 | 1012.9 |
| 20260504182532 | 77 | 234 | 5.2 | 12.2 | 0.00 | 0.00 | 0.00 | 33 | 1013.0 |
| 20260504182031 | 77 | 229 | 5.2 | 12.2 | 0.00 | 0.00 | 0.00 | 33 | 1013.1 |
| 20260504181541 | 76 | 271 | 5.2 | 13.9 | 0.00 | 0.00 | 0.00 | 34 | 1013.2 |
| 20260504181036 | 76 | 226 | 6.1 | 13.9 | 0.00 | 0.00 | 0.00 | 33 | 1013.2 |
| 20260504180532 | 77 | 220 | 6.1 | 13.0 | 0.00 | 0.00 | 0.00 | 33 | 1013.3 |
| 20260504180045 | 77 | 233 | 6.1 | 13.9 | 0.00 | 0.00 | 0.00 | 32 | 1013.2 |
| 20260504175533 | 76 | 230 | 5.2 | 13.9 | 0.00 | 0.00 | 0.00 | 34 | 1013.3 |
| 20260504175032 | 75 | 214 | 8.7 | 14.8 | 0.00 | 0.00 | 0.00 | 35 | 1013.3 |
| 20260504174545 | 75 | 221 | 7.0 | 15.6 | 0.00 | 0.00 | 0.00 | 35 | 1013.3 |
| 20260504174030 | 75 | 226 | 7.8 | 15.6 | 0.00 | 0.00 | 0.00 | 34 | 1013.3 |
| 20260504173532 | 75 | 229 | 7.8 | 14.8 | 0.00 | 0.00 | 0.00 | 33 | 1013.4 |
| 20260504173047 | 76 | 245 | 9.6 | 14.8 | 0.00 | 0.00 | 0.00 | 33 | 1013.4 |
| 20260504172530 | 76 | 223 | 7.0 | 16.5 | 0.00 | 0.00 | 0.00 | 34 | 1013.4 |
| 20260504172031 | 75 | 236 | 7.8 | 16.5 | 0.00 | 0.00 | 0.00 | 35 | 1013.5 |
| 20260504171541 | 76 | 229 | 6.1 | 13.0 | 0.00 | 0.00 | 0.00 | 35 | 1013.6 |
| 20260504171034 | 76 | 227 | 6.1 | 15.6 | 0.00 | 0.00 | 0.00 | 34 | 1013.6 |
| 20260504170533 | 75 | 219 | 7.0 | 15.6 | 0.00 | 0.00 | 0.00 | 33 | 1013.6 |
| 20260504151032 | 69 | 217 | 10.4 | 14.8 | 0.00 | 0.00 | 0.00 | 44 | 1014.6 |
| 20260504150534 | 70 | 243 | 6.1 | 12.2 | 0.00 | 0.00 | 0.00 | 44 | 1014.7 |
| 20260504141029 | 66 | 204 | 4.3 | 10.4 | 0.00 | 0.00 | 0.00 | 53 | 1014.8 |
| 20260504140530 | 65 | 235 | 5.2 | 12.2 | 0.00 | 0.00 | 0.00 | 55 | 1014.9 |